Starlink 31332

operational
NORAD ID: 59566 Int'l Des: 2024-076 Owner: SPXS Country: US Constellation: starlink
LEOCIRCULAR

Starlink 31332について

説明を読み込み中...

リアルタイム位置

3D地球を読み込み中...

次回通過

高度履歴

Altitude vs Time

uPlot chart will show altitude changes over time

軌道要素

1 59566U 24076C 25259.75103088 -.00006509 00000-0 -22706-3 0 9997
2 59566 43.0018 271.0874 0000964 289.0730 71.0017 15.27600954 79906
Epoch: Sep 16, 2025 • Age: 31 hours

現在のステータス

高度 483.5 km
速度 7.63 km/s
衛星直下点 -2.83°S, 80.07°E
打ち上げ日 Apr 23, 2024
運用期間 1.4 years
タイプ internet

技術仕様

分類 Payload
質量 730.00 kg
乾燥質量 700.00 kg
総質量 730.00 kg
長さ 0.30 m
直径 4.10 m
スパン 29.00 m
形状 Box + pan
製造者 SPXS
バスタイプ Starlink V2M
フェーズステータス In Orbit
所有者/国 SPXS/US

大規模コンステレーション

Loading constellations...